KD5HIA Weather Reports


Display with metric or nautical units.
time (UTC)temp
F
wind
direction
speed
MPH
gust
MPH
rain 1hr
in
rain 24hr
in
rain mn
in
humidity
%
barometer
mb
20260504195017 88 203 6.0 14.0 0.00 0.00 0.00 43 1010.1
20260504194017 87 203 7.0 15.0 0.00 0.00 0.00 43 1010.2
20260504193017 85 203 8.0 15.0 0.00 0.00 0.00 43 1010.4
20260504192017 85 248 7.0 13.0 0.00 0.00 0.00 46 1010.5
20260504191017 84 203 8.0 16.0 0.00 0.00 0.00 46 1010.5
20260504190017 83 203 9.0 15.0 0.00 0.00 0.00 47 1010.7
20260504185017 84 248 7.0 14.0 0.00 0.00 0.00 47 1011.1
20260504184017 82 180 10.0 17.0 0.00 0.00 0.00 49 1011.0
20260504183017 82 203 8.0 15.0 0.00 0.00 0.00 49 1011.4
20260504181017 81 225 8.0 15.0 0.00 0.00 0.00 51 1011.8
20260504180017 80 248 7.0 15.0 0.00 0.00 0.00 51 1011.8
20260504175017 81 225 7.0 14.0 0.00 0.00 0.00 52 1012.2
20260504174017 80 203 7.0 15.0 0.00 0.00 0.00 53 1012.1
20260504173017 80 203 11.0 17.0 0.00 0.00 0.00 53 1012.1
20260504172017 79 203 7.0 16.0 0.00 0.00 0.00 55 1012.4
20260504171017 78 225 9.0 18.0 0.00 0.00 0.00 56 1012.5
20260504151017 70 203 14.0 22.0 0.00 0.00 0.00 68 1012.7
20260504141017 66 203 8.0 13.0 0.00 0.00 0.00 75 1012.9
20260504081017 62 248 1.0 2.0 0.00 0.00 0.00 65 1013.7
20260504050017 65 180 3.0 5.0 0.00 0.00 0.00 62 1016.1
20260504045017 65 180 3.0 5.0 0.00 0.00 0.00 61 1016.3
20260504044017 65 180 3.0 8.0 0.00 0.00 0.00 62 1016.3
20260504043017 65 180 3.0 7.0 0.00 0.00 0.00 61 1016.3
20260504042020 64 180 3.0 5.0 0.00 0.00 0.00 63 1016.1
20260504041021 65 180 3.0 6.0 0.00 0.00 0.00 60 1016.2
20260504040021 66 180 4.0 7.0 0.00 0.00 0.00 59 1016.5
20260504035017 65 180 3.0 7.0 0.00 0.00 0.00 60 1016.2
20260504034017 65 158 3.0 6.0 0.00 0.00 0.00 62 1016.0
20260504033017 66 158 4.0 6.0 0.00 0.00 0.00 60 1016.1
20260504032017 66 158 4.0 6.0 0.00 0.00 0.00 60 1015.9
20260504031017 66 158 5.0 8.0 0.00 0.00 0.00 59 1015.8
20260504030017 66 158 5.0 7.0 0.00 0.00 0.00 59 1015.8
20260504025017 67 158 5.0 8.0 0.00 0.00 0.00 58 1015.7
20260504024017 67 158 6.0 7.0 0.00 0.00 0.00 56 1015.7
20260504023017 68 158 5.0 8.0 0.00 0.00 0.00 56 1015.7
20260504022017 68 135 5.0 7.0 0.00 0.00 0.00 55 1015.5
20260504021017 69 158 4.0 5.0 0.00 0.00 0.00 54 1015.5
20260504020017 69 158 4.0 6.0 0.00 0.00 0.00 53 1015.4
20260504015017 70 158 5.0 8.0 0.00 0.00 0.00 51 1015.3
20260504014017 70 158 5.0 7.0 0.00 0.00 0.00 51 1015.4
20260504013017 71 180 4.0 7.0 0.00 0.00 0.00 50 1015.5
20260504012017 71 180 4.0 6.0 0.00 0.00 0.00 48 1015.2
20260504011017 72 180 4.0 7.0 0.00 0.00 0.00 47 1015.2
20260504010017 73 180 5.0 10.0 0.00 0.00 0.00 45 1015.2
20260504005017 73 180 6.0 11.0 0.00 0.00 0.00 43 1015.4
20260504004017 74 180 6.0 10.0 0.00 0.00 0.00 42 1015.4
20260504003017 74 158 7.0 11.0 0.00 0.00 0.00 41 1015.5
20260504002017 75 180 7.0 11.0 0.00 0.00 0.00 40 1015.7
20260504001017 75 180 6.0 10.0 0.00 0.00 0.00 40 1015.6
20260504000017 75 180 8.0 11.0 0.00 0.00 0.00 39 1015.7
20260503235017 75 180 7.0 14.0 0.00 0.00 0.00 38 1015.7
20260503234017 76 180 9.0 16.0 0.00 0.00 0.00 38 1015.7
20260503233017 76 180 8.0 15.0 0.00 0.00 0.00 38 1015.7
20260503232017 77 180 7.0 17.0 0.00 0.00 0.00 38 1015.9
20260503231017 77 203 8.0 16.0 0.00 0.00 0.00 37 1015.9
20260503230017 76 158 9.0 16.0 0.00 0.00 0.00 38 1016.1
20260503225017 78 180 9.0 17.0 0.00 0.00 0.00 38 1016.2
20260503224017 76 180 9.0 13.0 0.00 0.00 0.00 39 1016.4
20260503223017 76 180 9.0 16.0 0.00 0.00 0.00 39 1016.6
20260503222017 76 180 8.0 13.0 0.00 0.00 0.00 37 1016.6
20260503221017 77 203 9.0 14.0 0.00 0.00 0.00 37 1016.9
20260503220017 77 180 8.0 16.0 0.00 0.00 0.00 37 1016.7
20260503215017 77 203 9.0 16.0 0.00 0.00 0.00 37 1016.7
20260503214017 77 203 8.0 14.0 0.00 0.00 0.00 37 1017.0
20260503213017 78 158 8.0 14.0 0.00 0.00 0.00 36 1016.9
20260503212017 78 203 7.0 14.0 0.00 0.00 0.00 36 1017.3
20260503211017 79 225 6.0 13.0 0.00 0.00 0.00 36 1017.6
20260503210017 78 180 8.0 17.0 0.00 0.00 0.00 36 1017.9
20260503205017 78 158 9.0 14.0 0.00 0.00 0.00 36 1017.9
20260503204017 78 203 6.0 13.0 0.00 0.00 0.00 36 1018.2
20260503203017 78 158 11.0 18.0 0.00 0.00 0.00 36 1018.2
20260503202017 78 158 11.0 19.0 0.00 0.00 0.00 38 1018.6
20260503201017 77 203 8.0 17.0 0.00 0.00 0.00 38 1018.8
20260503200017 77 158 8.0 20.0 0.00 0.00 0.00 38 1018.9